Flag for Peru Weather past 2 weeks in Arequipa, Arequipa, Peru

Now
61 °F

Clear.


Feels Like: 61 °F
Forecast: 52 / 76 °F
Wind: 3 mph from West

Location: Arequipa Airport

Current Time: Jun 3, 2015 at 7:08:47 PM

Latest Report: Jun 3, 2015 at 6:00 PM


Visibility: 10 mi

Pressure: 30.30 "Hg

Humidity: 29%

Dew point: 28 °F

Location of ArequipaLocation

Historic Weather in Arequipa — Graph

°F

Arequipa temperature yesterday

Maximum temperature yesterday: 72 °F (at 11:00 AM)
Minimum temperature yesterday: 52 °F (at 1:00 AM)
Average temperature yesterday: 61 °F

Past Weeks' High & Low Weather Summary

 TemperatureHumidityPressure
High73 °F (May 20, 2:00 PM)59% (May 30, 6:00 PM)30.42 "Hg (May 30, 6:00 PM)
Low45 °F (May 23, 3:00 AM)7% (May 20, 9:00 AM)30.24 "Hg (May 29, 2:00 PM)
Average59 °F25%30.32 "Hg
* Reported May 19 6:00 PM — Jun 3 6:00 PM, Arequipa, Weather by CustomWeather, © 2015

Note: Actual official high and low records may vary slightly from our data, if they occured in-between our weather recording intervals... More about our weather records

Advertising

Arequipa weather history for previous 24 hours

 ConditionsComfort  
Time TempWeatherWind HumidityBarometerVisibility
6:00 PM
Wed, Jun 3
61 °FClear.3 mph29%30.30 "Hg10 mi
5:00 PM66 °FSunny.8 mph21%30.27 "Hg10 mi
4:00 PM70 °FSunny.10 mph15%30.27 "Hg10 mi
3:00 PM72 °FPassing clouds.9 mph14%30.24 "HgN/A
2:00 PM72 °FPassing clouds.9 mph14%30.27 "HgN/A
1:00 PM72 °FPassing clouds.9 mph14%30.27 "HgN/A
12:00 PM73 °FPassing clouds.12 mph14%30.30 "HgN/A
11:00 AM73 °FPassing clouds.7 mph14%30.30 "HgN/A
10:00 AM70 °FPassing clouds.6 mph18%30.33 "HgN/A
9:00 AM70 °FPassing clouds.6 mph18%30.33 "HgN/A
8:00 AM66 °FSunny.3 mph22%30.33 "Hg10 mi
7:00 AM54 °FSunny.7 mph33%30.30 "Hg10 mi
6:00 AM50 °FPassing clouds.3 mph35%30.30 "HgN/A
5:00 AM52 °FClear.3 mph32%30.30 "Hg10 mi
4:00 AM52 °FClear.6 mph32%30.30 "Hg10 mi
3:00 AM52 °FClear.5 mph30%30.27 "Hg10 mi
2:00 AM54 °FClear.6 mph28%30.30 "Hg10 mi
1:00 AM54 °FClear.7 mph30%30.30 "Hg10 mi
12:00 AM52 °FPassing clouds.7 mph30%30.30 "HgN/A
11:00 PM
Tue, Jun 2
54 °FPassing clouds.5 mph28%30.30 "HgN/A
10:00 PM55 °FClear.9 mph28%30.30 "Hg10 mi
9:00 PM55 °FClear.2 mph28%30.30 "Hg10 mi
8:00 PM57 °FPassing clouds.5 mph27%30.30 "HgN/A
7:00 PM59 °FClear.6 mph31%30.30 "Hg10 mi
Weather by CustomWeather, © 2015

See weather overviewHow to use our weather pages